NOAA 16 DEB, 41343

Orbit data source: Space-Track

NOAA 16 DEB, 41343 is space debris in SSO originally from a launch on Thu, 21 Sep 2000 UTC launched from the Air Force Western Test Range (AFWTR). Debris objects in space refer to the collection of defunct objects orbiting the Earth. Examples of debris include non-operational satellites, rocket bodies, and fragments generated from explosions, collisions, or faulty payload assembly.

Loading next visibility...
Identifier
41343, 2000-055HL
Orbit
SSO
Country
Flag of USUS
Related business
Manufacturer
Unknown
Mission
Spacecraft
Bus & Motor
Unknown
Mass
Unknown
Launch date (UTC)
2000-09-21 (25 years ago)
Launch vehicle
Unknown
Launch site
Air Force Western Test Range (AFWTR)
Object type
Payload
Rocket body
Debris
Shape & HBR
Unknown
Radar Cross Section
Small (<0.1 m²)

Expand to show TLE details & history
Last TLE update: 4 days ago

TLE from 4 days ago
0 NOAA 16 DEB
1 41343U 00055HL  25256.37869260  .00002779  00000-0  10438-2 0  9999
2 41343  98.6109 310.4787 0019768 339.6870  20.3525 14.32276148498755
Epoch: 2025-09-13T09:05Z
TLE epoch observation values (Epoch: 2025-09-13T09:05:19.04Z)
Latitude
-0.00005°
Longitude
-178.46353°
Altitude
773.793 km
Speed
7.474 km/s
True Right ascension
20h 41m 54s
True Declination
0° 00' 00"
Sunlit
Object was in full shadow at epoch
Visualization orbit readout
Latitude
Unknown
Longitude
Unknown
Altitude
Unknown
Speed
Unknown
Apparent Right ascension
Unknown
Apparent Declination
Unknown
Sunlit
N/A
Visualization observer readout
Local Sidereal Time
09:42:19
Azimuth
Unknown
Elevation
Unknown
Doppler factor
Unknown
Orbital elements
Apogee altitude
795.423 km
Perigee altitude
767.117 km
Semi-major axis
7,159.407 km
Eccentricity
0.00198
Inclination
98.6109°
RAAN
310.4787°
Arg. of periapsis
339.687°
True anomaly
20.43147°
Mean anomaly
20.3525°
Eccentric anomaly
20.39197°
Mean motion
3.58284 °/min
Orbital period
100.48 mins
BSTAR
0.0010438
Loading maneuver chart data...
Computing Atmospheric mass density...
Loading historical data...
Loading historical data...
Loading historical data...
Loading historical data...
Loading historical data...
Loading historical data...
Loading historical data...

Documentation

Showing up to 5 results
|